Wind_Speed
55 56 58 59 60 60 60 60 60 60 61 61 62 62 61 60 59 59 58 58 57 58 59 60 60 60 60 60 60 59 58 58 57 55 54 56 57 53 53 55 55 56 57 58 59 60 61 63 64 65 65 64 65 67 68 68 69 68 64 59 54 53 54 56 59 60 61 61 62 65 64 63 62 60 58 56 55 52 46 43 41 38 42 44 40 39 40 41
57 58 59 60 60 60 60 60 60 60 60 60 61 62 62 61 60 60 59 58 57 57 57 58 59 58 58 58 57 57 57 58 59 58 59 60 57 54 56 56 55 55 56 57 58 59 60 62 64 65 64 63 63 65 66 66 67 65 63 59 54 54 57 59 61 62 63 63 65 68 66 63 63 61 59 57 56 53 46 43 40 41 47 45 41 41 41 42
59 60 61 62 62 63 63 63 64 63 63 62 62 62 62 63 63 63 62 61 60 59 59 59 60 59 58 58 56 55 55 56 57 59 61 61 59 58 58 57 56 54 54 56 57 57 57 60 62 62 62 62 63 65 64 63 64 63 62 58 54 58 61 62 63 62 64 65 68 71 67 65 64 62 60 58 57 53 48 46 43 48 51 46 44 43 42 42
61 62 63 64 65 65 66 66 67 67 68 67 67 66 66 66 66 66 66 65 64 64 63 63 63 62 60 59 58 56 55 56 56 57 60 61 61 61 59 58 57 55 55 55 55 56 57 58 59 59 60 61 63 65 63 62 62 61 59 55 55 62 63 63 65 64 66 66 68 71 68 66 65 63 60 58 57 52 49 48 48 54 54 47 46 45 43 42
63 65 66 67 68 69 69 70 70 71 71 71 72 72 72 72 72 71 70 69 68 67 67 67 67 66 64 62 61 59 58 58 58 57 58 59 61 61 61 60 59 57 57 56 55 55 56 57 58 58 58 59 61 63 61 62 63 60 57 55 58 62 62 64 66 66 67 67 70 71 67 66 65 63 61 58 57 53 49 50 54 58 54 49 48 47 45 43
66 68 69 70 72 73 74 74 75 75 76 76 76 76 76 76 76 76 75 74 73 72 71 70 71 70 68 66 64 62 61 61 61 60 59 58 58 59 61 61 60 60 59 58 57 56 56 56 57 56 56 57 59 59 60 63 63 60 57 57 59 60 60 63 65 66 68 69 71 70 67 65 63 61 59 58 57 55 52 54 60 61 54 49 49 47 45 43
69 71 72 73 75 76 77 78 79 79 80 80 81 81 81 81 80 80 80 79 78 77 76 75 74 73 72 69 67 66 64 64 65 64 62 60 58 57 58 60 61 61 60 59 59 58 57 56 55 55 56 57 57 57 60 62 62 59 58 58 60 60 60 62 64 66 68 69 70 70 66 64 62 59 58 58 58 58 57 58 63 62 53 49 48 47 46 43
72 74 76 78 79 81 82 83 84 85 85 85 85 86 86 85 85 85 84 83 82 82 81 80 79 78 76 73 71 68 66 69 70 67 64 62 60 58 57 58 59 60 61 61 60 60 59 57 55 55 55 55 57 57 59 61 59 56 57 59 61 60 60 62 63 64 66 67 68 69 65 63 62 59 59 59 60 61 60 59 62 59 52 51 49 48 47 44
77 79 80 82 84 86 88 89 90 91 91 91 91 91 91 90 90 90 89 88 87 85 84 84 83 83 80 77 75 69 70 76 73 67 66 65 62 60 59 58 58 58 59 60 61 60 59 57 56 56 55 55 57 57 59 58 54 53 56 60 61 62 62 62 63 63 64 65 66 66 63 63 62 61 61 61 63 63 58 58 61 57 53 53 51 50 49 46
82 84 86 87 89 91 93 94 96 97 98 98 98 98 97 96 95 94 94 93 92 90 89 87 86 85 83 82 78 73 77 81 74 69 69 68 66 64 62 61 59 57 57 58 60 59 59 59 59 59 57 56 56 57 58 55 52 54 57 59 60 61 63 63 63 64 63 63 63 62 60 61 62 62 62 62 64 61 57 60 61 57 54 52 51 52 50 48
86 88 90 92 93 95 96 98 100 101 102 103 103 103 103 103 102 101 99 98 96 95 94 92 89 87 84 83 79 78 85 85 77 73 72 71 69 67 65 63 61 59 57 57 57 57 59 61 61 61 58 57 55 55 56 54 53 54 55 57 57 58 61 62 63 64 63 61 61 59 58 59 60 61 62 63 62 59 59 62 59 56 54 52 52 52 50 48
90 91 92 93 94 95 96 98 100 102 104 105 107 107 107 107 107 106 105 103 101 99 98 96 94 91 87 83 80 85 90 86 81 77 75 74 71 70 68 66 65 63 61 59 57 57 59 61 61 59 57 57 56 55 54 54 55 54 53 54 55 56 57 57 60 64 63 60 60 59 57 57 58 59 60 60 58 58 61 61 59 57 56 53 53 53 52 51
90 90 90 91 91 91 92 93 95 97 100 103 106 108 109 110 110 110 110 108 107 105 102 101 98 95 91 84 84 91 92 86 83 79 77 77 74 73 71 69 68 67 65 63 61 60 60 60 59 57 57 57 56 55 54 54 55 54 53 52 52 53 52 54 58 62 62 60 61 59 56 55 56 58 57 57 57 58 59 59 58 58 57 56 56 56 56 54
87 86 85 85 85 86 86 87 88 90 92 95 99 103 106 109 110 111 111 111 110 109 107 105 103 99 94 88 91 97 93 87 83 80 80 81 79 78 74 72 72 71 69 67 65 64 63 61 58 57 57 56 56 56 55 54 54 54 54 51 49 48 48 52 56 58 58 58 60 58 55 55 56 57 57 57 57 56 56 56 56 56 57 58 58 58 58 57
82 81 81 81 81 82 82 82 83 84 86 88 90 94 98 102 106 109 111 111 112 111 110 109 106 103 98 94 98 100 94 88 85 84 84 84 83 82 78 76 75 73 72 70 69 67 65 62 59 56 55 55 56 56 55 55 53 53 52 49 46 44 45 51 54 55 54 55 57 56 55 56 56 58 59 57 56 54 53 53 53 53 55 58 58 58 59 58
77 77 78 78 79 79 79 79 80 80 81 82 84 86 90 94 97 101 105 108 110 110 111 111 109 106 102 101 103 103 98 92 89 88 86 85 85 84 81 78 76 75 74 73 72 69 67 62 58 55 54 55 54 54 55 55 52 51 49 47 46 44 44 48 51 52 52 52 53 52 54 56 56 60 61 56 54 54 51 51 51 50 52 56 57 56 56 57
73 73 74 75 76 76 76 76 76 76 76 77 79 81 84 86 89 92 96 100 103 106 109 111 110 107 107 107 107 106 102 96 91 89 87 86 87 86 82 79 78 77 76 75 73 70 67 62 58 56 54 53 52 52 53 51 49 49 47 46 46 45 44 46 49 50 51 51 51 50 51 54 58 61 61 55 54 54 52 51 50 48 50 53 53 52 53 55
70 70 71 71 71 71 72 72 72 71 71 72 74 76 79 80 80 83 86 89 93 98 104 108 108 108 111 111 110 109 106 100 94 90 89 89 89 88 83 81 80 79 78 76 72 70 68 63 60 58 55 52 50 49 46 45 47 48 46 45 45 45 44 45 47 49 50 51 50 49 49 52 58 60 59 56 54 54 53 51 50 47 48 49 49 49 49 52
67 67 67 67 66 67 67 68 67 66 65 66 68 69 72 72 72 76 78 80 84 90 96 101 104 107 111 113 112 112 109 104 98 94 92 92 91 89 85 84 83 80 77 74 71 70 68 65 63 58 54 50 48 45 42 43 46 47 46 45 44 44 46 46 48 49 51 52 50 48 48 51 56 59 59 58 56 55 53 52 50 47 47 46 45 46 45 48
63 62 61 61 61 61 62 63 62 61 60 60 60 61 63 63 63 67 70 73 78 82 87 91 96 102 108 112 113 113 111 108 103 98 96 95 94 92 88 86 84 80 77 73 71 70 68 65 61 57 54 52 49 46 43 44 45 46 46 45 44 45 46 48 49 51 53 52 50 48 49 50 54 57 58 58 56 55 54 52 50 48 47 44 43 44 43 46
59 57 56 56 55 55 56 56 57 57 56 55 54 55 55 54 55 57 60 65 70 76 80 83 87 93 102 109 112 113 112 110 106 102 99 98 97 94 90 87 84 80 76 74 73 71 67 62 58 58 58 56 54 50 47 46 45 44 45 45 44 44 45 49 51 53 54 52 50 49 49 50 53 55 55 55 55 55 54 52 50 49 47 44 42 43 43 44
56 54 53 51 50 49 49 50 51 51 51 49 49 50 49 48 48 50 51 56 63 70 75 78 80 86 96 104 108 111 111 110 108 105 102 101 99 95 91 88 84 81 79 78 74 71 65 59 59 60 60 59 57 53 49 48 45 44 44 45 45 44 45 49 51 54 55 51 49 50 49 50 51 51 51 53 55 55 54 52 50 49 47 44 43 43 45 46
53 50 49 46 45 44 43 44 44 45 45 44 43 43 44 44 43 44 46 50 58 64 69 74 77 81 90 97 101 105 107 109 109 107 105 103 101 97 93 88 86 84 82 79 74 69 63 60 61 62 62 61 58 54 51 49 46 43 43 44 44 44 45 48 50 54 56 51 49 50 48 47 48 46 47 51 53 54 53 52 51 50 48 45 44 45 47 47
50 47 45 43 40 39 39 39 38 38 39 39 37 37 39 40 39 39 41 46 56 61 63 66 70 75 85 91 93 98 103 106 107 107 106 104 103 99 94 90 88 87 83 78 74 70 65 63 65 64 63 62 60 56 52 49 45 42 41 42 45 45 46 47 50 56 58 53 49 48 45 44 43 42 43 47 51 53 53 52 51 50 48 47 46 47 47 48
49 45 44 41 39 37 36 36 34 33 34 34 33 32 33 35 36 36 38 45 54 56 53 57 63 71 83 85 83 90 97 101 104 105 106 106 105 102 96 93 90 87 83 79 76 71 68 68 68 67 65 63 61 57 53 49 46 42 40 42 46 48 48 49 52 58 59 52 47 46 44 42 41 41 42 45 49 52 52 51 50 49 49 49 48 47 47 48
49 45 43 40 38 36 35 34 32 31 31 30 30 29 29 31 32 34 38 44 49 49 48 54 61 71 80 79 78 86 93 96 100 103 106 107 106 103 99 95 90 87 84 82 78 74 70 70 69 67 66 64 61 58 54 51 48 43 42 44 47 49 50 51 53 57 55 48 46 46 43 41 41 41 43 47 50 51 50 49 49 49 49 50 50 48 48 47
49 45 42 38 36 35 33 31 30 29 28 27 26 26 26 27 29 32 36 41 45 47 48 54 60 67 73 73 74 82 88 93 97 101 106 108 107 105 100 96 92 89 87 84 79 74 71 71 70 67 66 63 60 57 55 53 49 45 46 48 48 50 51 53 54 55 51 47 47 46 42 40 41 42 44 48 48 46 46 48 49 49 50 51 51 50 48 47
49 45 41 37 34 32 30 28 26 26 25 25 23 22 22 23 26 29 33 38 42 45 47 53 59 62 64 65 69 76 83 90 95 98 104 108 108 106 101 97 94 91 88 83 77 74 73 73 70 67 65 61 58 57 57 56 51 49 51 51 49 51 53 55 55 54 51 48 46 42 40 39 40 43 45 45 44 42 43 46 49 50 51 52 53 52 49 47
48 44 39 36 33 29 27 26 24 23 23 22 20 18 18 19 21 24 28 33 37 41 45 51 56 57 57 61 67 74 81 85 89 95 102 107 109 107 103 99 97 94 90 84 79 78 76 73 71 69 65 61 60 60 60 57 53 54 55 53 52 53 55 57 56 54 52 47 41 38 39 39 40 44 44 41 42 43 43 44 48 50 51 53 55 53 51 49
47 44 39 35 32 28 25 25 23 22 19 19 18 16 15 15 16 19 23 28 32 36 40 46 51 52 54 60 67 74 78 80 85 92 99 105 108 107 105 102 100 96 92 86 82 80 77 75 73 69 65 64 63 63 62 58 56 58 58 55 54 54 55 56 55 54 50 42 37 37 38 39 41 42 41 40 42 46 46 44 47 50 51 54 56 55 53 51
47 43 39 35 33 29 26 25 24 21 17 14 15 14 13 12 13 14 17 21 26 31 35 40 46 49 52 60 67 73 78 80 85 90 95 101 105 106 106 104 101 97 92 87 82 80 78 76 73 69 67 67 67 66 64 60 60 61 58 56 55 54 53 53 53 52 46 38 36 36 38 40 40 38 39 41 43 47 48 44 45 50 52 55 57 57 55 53
49 43 40 36 33 29 28 27 25 23 17 12 11 11 10 9 9 11 13 17 21 27 32 37 43 46 50 58 65 71 76 77 80 86 90 93 97 100 102 101 99 95 89 84 81 79 77 74 71 70 70 69 67 65 63 62 62 61 58 55 54 52 50 48 48 47 42 37 36 37 37 38 37 36 39 41 40 43 47 45 45 49 52 55 57 58 57 55
50 45 41 37 33 30 29 29 26 23 18 12 9 7 6 5 6 8 11 15 20 25 30 35 41 44 48 55 61 67 72 73 76 82 86 89 91 94 97 99 97 93 88 84 82 80 77 75 74 73 71 69 66 63 61 60 61 60 56 54 51 49 45 42 42 42 40 38 38 38 37 35 35 36 39 40 39 41 46 48 47 48 52 54 56 58 58 56
51 46 43 39 35 32 30 29 27 22 18 14 9 5 3 4 7 9 12 16 20 25 30 35 39 43 47 51 55 60 66 70 75 80 83 87 89 91 95 97 95 92 89 87 85 81 77 75 72 70 68 66 64 61 59 59 60 59 56 54 51 47 43 40 40 40 39 40 40 39 36 34 36 39 42 43 42 42 47 50 49 49 50 52 55 57 58 57
52 47 44 40 36 33 31 29 27 23 18 14 10 6 2 4 7 9 12 16 20 25 29 34 38 40 43 46 50 56 62 67 73 77 80 83 86 89 92 93 92 91 89 87 85 81 77 73 70 69 68 66 64 62 62 63 63 62 59 55 50 46 44 43 41 39 39 42 44 39 35 34 36 39 43 44 41 40 45 50 52 50 49 50 53 57 58 58
53 48 45 40 37 34 31 29 28 24 19 15 11 6 1 3 7 10 13 16 20 23 27 31 34 37 39 42 47 53 60 66 70 73 75 80 84 87 90 91 91 90 88 86 83 79 76 74 71 70 69 67 65 64 63 64 64 63 59 52 48 48 47 44 42 39 41 44 44 38 33 33 35 39 42 41 37 37 41 48 52 52 50 51 53 55 57 57
54 49 46 42 38 35 32 31 29 25 20 16 11 5 0 3 6 9 13 16 19 22 25 28 31 34 38 41 45 50 57 63 67 70 73 77 81 86 88 90 90 89 87 85 82 79 77 75 73 71 69 67 66 66 65 64 64 62 55 51 52 53 48 44 42 40 41 43 43 38 33 32 35 39 42 39 35 36 40 46 49 50 51 52 53 55 56 56
55 51 47 44 40 37 34 32 29 24 19 15 11 6 1 3 4 6 10 14 18 21 23 26 29 32 35 39 42 47 53 59 64 67 70 74 78 83 87 89 89 88 88 86 83 81 80 79 76 74 71 69 68 67 65 64 64 61 56 55 55 51 45 44 43 39 40 42 41 37 33 32 35 39 40 37 36 38 42 46 48 49 51 52 54 56 55 55
55 52 49 45 41 38 35 31 28 24 19 15 12 7 2 2 4 5 8 12 16 20 23 25 27 30 33 37 40 45 51 57 62 65 68 71 77 82 86 87 87 87 87 85 83 83 82 81 79 76 74 72 70 66 62 62 62 61 58 57 54 48 45 44 40 38 39 41 41 38 33 32 35 38 39 39 39 40 42 45 48 50 52 51 53 56 56 55
55 53 50 46 42 38 34 31 28 25 19 15 12 8 3 1 3 4 7 11 15 19 22 24 26 28 31 33 37 43 49 55 60 64 67 71 77 82 85 86 87 87 86 84 83 83 83 80 78 76 75 71 67 62 60 60 60 59 57 55 51 48 46 43 39 38 40 40 40 38 34 33 35 38 41 41 41 39 40 42 46 50 52 51 52 55 56 55
55 53 50 47 43 38 34 30 27 24 20 15 12 8 4 2 3 4 6 10 14 18 22 24 25 28 30 32 36 41 47 52 58 62 66 70 76 82 85 86 87 88 87 85 84 82 81 78 75 74 71 67 63 61 60 60 59 58 55 53 51 48 45 42 39 39 38 39 40 38 35 35 36 39 43 43 41 39 38 39 42 46 51 52 51 53 56 56
55 53 51 47 43 39 34 30 28 25 20 15 12 9 6 3 3 4 6 10 14 18 21 23 25 27 30 33 36 40 45 50 56 60 64 70 76 81 85 87 88 88 86 85 84 82 79 76 73 71 68 65 64 63 63 62 61 59 57 54 52 49 46 43 40 39 38 39 40 39 38 37 36 39 42 43 42 40 38 38 39 42 48 52 52 52 54 54
54 52 50 47 43 39 35 31 28 25 20 15 12 10 7 4 4 4 8 11 15 18 21 23 24 25 29 32 35 39 44 49 54 59 63 69 76 83 87 89 89 87 86 84 83 81 77 74 72 70 69 68 67 66 65 64 64 62 59 56 53 50 48 45 43 41 40 40 40 40 40 38 36 38 41 42 41 39 38 39 39 40 45 50 52 52 52 53
53 50 49 47 44 40 35 30 27 24 19 15 12 10 7 5 4 4 8 13 16 19 21 23 25 26 28 32 36 40 44 49 53 57 62 69 77 84 88 89 88 87 85 84 82 79 76 73 71 70 70 69 68 66 64 62 62 60 58 56 53 51 50 48 46 44 42 41 40 40 40 38 38 40 42 42 42 39 38 38 38 38 42 47 51 52 52 52
53 50 48 47 44 40 35 30 27 24 20 15 11 10 9 7 5 5 8 14 18 20 22 24 26 28 29 32 37 40 45 50 55 59 64 71 77 83 87 88 88 86 85 83 80 77 74 71 69 67 66 63 60 57 54 55 58 58 58 56 54 52 51 49 47 45 42 41 40 40 40 39 38 40 41 42 42 41 40 39 39 40 42 46 50 51 51 51
53 49 48 47 44 40 36 30 27 24 20 15 11 11 10 8 7 5 8 15 19 21 23 25 26 28 31 33 37 41 46 53 59 64 68 72 77 81 85 87 87 86 86 83 79 76 73 70 67 65 62 59 55 52 50 52 55 56 56 54 52 51 50 48 47 44 42 41 40 40 40 40 39 40 41 41 42 44 43 41 41 42 43 46 49 50 50 50
53 48 46 46 44 41 36 30 26 23 19 16 12 11 11 10 8 6 8 14 19 22 23 25 26 28 30 33 38 42 47 52 59 64 69 73 77 81 84 86 87 86 85 82 78 74 71 68 66 64 63 61 59 57 56 56 56 55 54 53 52 50 49 48 47 45 43 41 39 38 37 38 40 40 41 42 43 44 43 42 43 43 43 45 48 49 49 50
53 48 45 45 44 40 35 30 25 21 18 16 12 11 10 11 10 7 8 13 18 21 22 24 25 27 30 33 37 42 46 50 55 60 64 69 74 79 82 84 85 84 83 80 76 73 70 67 65 63 62 61 60 60 60 59 58 57 56 54 52 50 48 48 46 45 44 42 39 37 36 36 38 39 41 42 43 44 43 42 42 42 42 43 45 46 47 49
52 47 44 43 43 40 35 30 24 20 18 15 13 11 9 10 11 10 9 12 16 20 21 22 22 24 27 31 34 39 44 49 53 57 60 64 69 75 79 81 81 81 81 78 75 72 69 65 63 61 60 60 59 59 59 58 58 58 57 55 53 52 50 50 49 47 45 42 39 37 35 35 37 39 41 42 43 44 44 43 42 42 43 43 44 45 46 48
52 47 43 42 41 39 35 30 24 20 17 15 13 11 9 8 10 12 11 12 15 19 20 21 22 23 26 30 34 39 44 49 53 56 59 62 67 71 74 76 77 79 78 76 73 70 67 64 61 60 60 60 59 58 57 57 57 57 56 55 54 52 51 50 50 49 46 43 41 38 36 35 37 39 40 42 43 45 45 44 43 44 47 48 46 46 47 48
52 46 42 40 40 38 35 30 24 20 16 14 13 11 8 8 9 13 14 14 16 18 20 22 23 25 28 31 34 39 44 48 52 56 59 62 65 67 69 72 75 75 73 71 70 68 66 64 62 62 62 61 60 59 57 57 57 57 56 56 54 52 51 50 49 48 45 43 41 38 36 36 38 39 40 41 44 46 46 45 45 45 48 49 48 47 47 48
52 46 41 39 38 37 34 30 25 20 16 14 12 10 8 7 8 12 15 16 18 20 22 25 26 27 30 33 35 38 43 48 52 55 57 60 62 65 68 70 72 71 69 68 68 67 66 64 64 63 62 61 60 59 58 57 57 56 54 53 52 50 50 49 47 46 45 42 40 38 37 37 38 40 41 43 45 47 46 45 45 46 46 46 46 45 45 47
Wind_Direction
273 272 271 271 271 270 269 267 266 264 263 262 261 260 258 255 252 251 251 251 250 249 249 248 248 247 246 246 245 245 245 244 243 242 240 239 239 238 239 239 238 239 238 239 239 237 237 238 238 238 238 239 240 241 241 241 240 240 240 239 235 235 236 236 235 234 234 233 236 238 237 238 239 239 240 242 244 245 244 243 244 241 241 241 239 237 236 236
276 275 274 273 272 270 269 268 266 264 262 260 259 258 257 254 251 249 248 248 247 246 246 246 246 245 244 244 244 244 244 244 243 241 240 240 239 237 238 238 238 238 238 239 239 238 237 238 239 239 239 239 240 241 241 241 242 241 241 239 236 236 236 236 235 235 235 235 237 239 237 238 239 239 239 240 242 243 243 242 241 239 239 238 238 238 238 239
280 279 278 276 274 272 270 268 267 265 262 260 258 256 254 253 251 251 249 247 246 244 243 244 245 243 242 242 242 242 242 243 243 242 241 241 240 238 238 238 238 238 238 239 239 239 238 239 240 239 240 240 240 241 242 242 242 241 240 238 237 237 236 236 236 235 236 236 238 239 238 238 239 239 239 240 241 242 242 242 239 239 239 237 238 238 238 240
281 280 279 277 276 274 272 270 268 266 263 261 258 256 253 252 251 251 250 248 246 244 242 242 243 242 241 241 241 240 241 241 241 242 242 241 240 240 239 239 239 238 238 239 239 240 239 239 240 239 239 239 240 241 241 241 242 241 240 237 236 236 235 236 236 235 236 236 238 240 238 238 239 240 240 240 242 241 241 242 240 240 239 237 237 238 237 239
281 279 278 277 275 274 272 270 269 267 265 263 260 258 255 253 251 250 250 249 247 245 243 242 242 241 240 240 241 240 241 241 240 241 241 241 240 240 240 239 239 238 238 239 239 239 239 239 240 239 239 239 240 241 241 241 240 239 238 235 234 235 235 236 237 236 237 237 239 240 239 238 239 240 241 241 242 241 239 240 241 241 239 237 237 238 239 241
282 280 278 276 275 273 272 270 268 267 265 263 261 259 257 255 253 251 250 249 248 246 244 243 242 242 240 239 240 240 240 241 241 240 240 240 240 240 240 240 239 239 238 239 239 239 239 239 239 239 239 239 239 240 240 240 239 237 236 235 234 235 234 235 236 236 237 237 238 240 239 240 240 241 242 242 242 241 238 238 242 241 238 239 240 241 241 242
282 280 278 276 274 272 270 269 267 265 264 263 261 260 258 256 254 252 251 249 248 246 245 244 242 242 241 239 239 240 240 241 241 240 239 239 239 240 240 240 240 240 239 239 239 239 239 239 239 239 238 238 239 239 239 239 238 237 236 236 235 235 234 235 236 236 237 237 239 240 239 240 241 241 242 242 241 240 237 237 242 243 240 240 242 242 242 242
282 279 277 275 273 271 269 267 266 264 262 261 260 258 257 256 255 253 251 249 248 246 245 244 243 242 241 239 239 239 240 240 240 240 240 239 239 239 239 240 240 239 239 239 240 240 240 239 239 239 239 239 238 238 239 239 238 237 236 236 236 235 235 236 236 237 238 238 239 240 240 240 240 240 241 241 240 238 237 237 243 245 243 241 241 241 241 240
283 280 277 274 272 270 268 266 264 262 261 259 258 257 255 254 253 253 252 250 248 246 245 244 243 242 241 240 239 238 240 240 239 239 241 240 239 238 238 238 239 238 239 239 240 240 241 241 240 240 239 238 238 238 238 239 238 237 236 236 235 235 235 235 236 237 238 239 240 240 240 240 240 240 240 241 241 240 238 239 242 244 243 242 242 241 240 239
283 280 277 274 272 269 267 265 264 262 260 258 257 255 254 253 252 251 250 250 249 247 246 243 242 242 241 241 239 238 239 240 239 238 239 240 239 238 236 236 237 237 237 238 239 240 240 240 239 238 238 238 238 238 239 239 238 236 235 235 235 235 235 236 237 238 238 239 241 241 241 241 240 239 239 240 242 242 240 240 241 242 242 242 242 242 240 239
285 282 279 276 273 270 268 265 263 262 260 258 257 255 254 252 251 250 248 247 247 247 246 245 243 241 240 240 240 239 239 240 238 236 237 238 239 239 237 236 236 236 236 237 237 237 238 238 239 238 238 239 239 239 239 238 237 236 235 236 236 236 236 237 237 239 239 239 240 241 240 240 240 239 239 239 240 242 242 241 240 240 241 240 240 241 240 237
287 284 281 278 275 272 270 267 264 262 260 258 257 255 254 252 251 250 248 247 246 245 245 245 244 242 240 238 238 238 239 239 237 236 236 237 238 239 239 237 235 234 234 234 234 234 235 236 237 238 238 238 238 239 239 237 237 236 236 236 236 236 237 238 239 240 239 239 240 240 239 240 240 240 239 239 239 240 242 242 242 240 239 239 238 239 239 235
289 286 283 280 278 275 272 269 266 263 260 258 256 255 254 252 251 250 249 247 246 244 243 243 243 243 241 238 237 237 237 237 237 235 235 236 237 237 238 237 236 234 233 233 233 233 233 233 234 235 236 237 237 238 238 237 237 236 236 235 235 236 237 238 239 240 239 239 240 239 239 240 240 240 239 238 237 237 240 241 241 240 239 238 237 237 236 234
292 289 286 283 280 277 274 271 268 265 262 259 257 255 253 252 251 250 248 247 246 245 243 242 241 241 240 238 238 238 236 235 236 235 234 235 235 235 235 236 235 234 232 232 232 232 233 233 232 232 234 235 236 236 236 237 237 236 236 235 236 237 237 238 239 240 240 239 239 239 239 239 240 240 239 237 235 235 237 239 240 240 239 238 237 235 235 234
294 291 288 284 281 279 276 273 270 267 264 261 258 256 254 252 250 249 248 247 246 245 243 242 241 240 238 236 237 238 236 233 233 233 233 233 234 233 232 233 234 233 232 231 231 232 233 233 233 233 233 234 235 235 236 237 237 237 236 236 236 236 236 239 240 241 240 239 239 237 237 238 239 239 237 235 235 235 235 237 238 238 238 238 237 235 235 235
295 292 288 285 282 280 277 275 272 269 266 264 261 258 255 253 251 249 247 246 245 244 243 242 241 239 236 235 236 238 237 233 231 231 232 233 234 233 232 231 232 232 232 232 231 232 233 233 233 234 235 235 235 235 235 236 237 238 237 235 234 234 234 238 239 240 239 238 238 235 234 236 237 238 237 233 234 235 234 234 236 236 237 238 237 236 235 235
296 292 289 286 284 282 279 277 274 271 268 265 262 260 257 254 252 250 248 246 244 243 242 241 241 239 236 235 235 237 237 235 232 230 231 232 233 233 232 231 231 231 232 232 232 232 232 233 233 234 235 237 237 237 237 237 238 239 237 234 232 232 233 236 238 238 238 237 235 233 231 233 236 238 237 234 233 235 234 233 234 234 236 237 237 236 234 234
296 293 290 288 286 284 281 278 276 273 270 267 264 261 258 256 253 251 249 247 244 243 241 240 240 238 236 235 235 235 236 236 233 231 230 231 232 233 232 230 230 230 231 232 232 232 232 232 232 233 234 236 238 239 240 239 239 238 236 233 231 230 230 234 237 237 237 236 234 232 230 231 234 237 237 234 232 233 233 232 232 231 234 236 237 236 234 233
298 296 293 291 288 286 283 281 279 277 273 269 266 263 260 258 255 252 250 247 245 242 240 239 238 236 235 235 235 234 234 234 233 230 229 230 230 231 231 231 230 230 230 231 232 233 233 232 232 233 235 237 238 239 239 238 237 235 234 231 228 227 227 230 233 234 234 234 232 231 230 230 232 235 235 233 231 232 232 231 231 230 232 234 236 236 233 231
301 299 296 293 290 287 285 284 282 280 276 272 269 265 262 259 256 253 250 247 244 242 240 238 236 235 234 234 234 234 233 232 231 230 229 229 229 229 229 230 231 230 230 230 231 232 232 232 232 233 233 234 235 235 234 235 235 234 232 230 228 226 227 228 231 233 233 232 230 229 229 229 231 233 234 233 231 231 231 231 230 229 230 232 233 235 232 230
307 304 300 296 293 290 287 285 283 281 279 275 271 267 264 260 256 252 249 246 244 242 240 238 235 233 233 233 233 232 232 231 230 229 228 228 229 228 227 229 230 230 230 230 230 230 231 232 232 232 231 231 231 231 231 233 234 233 231 229 228 227 227 229 230 233 234 232 230 229 228 229 230 232 233 233 231 230 230 230 230 229 228 229 230 232 232 230
313 309 305 301 298 294 291 287 284 282 281 277 273 269 266 261 255 250 246 243 242 240 238 236 233 231 231 231 230 230 230 230 229 228 227 228 228 228 226 226 228 229 229 229 229 230 230 231 231 231 231 231 231 229 229 231 232 231 229 227 227 227 228 229 230 234 235 233 231 230 228 230 232 232 233 233 231 229 229 229 228 228 226 226 227 229 231 231
318 314 309 305 302 298 294 290 286 284 282 279 275 270 266 262 256 249 242 239 238 236 234 232 230 228 229 229 228 228 228 228 228 227 226 226 228 227 226 225 225 227 228 228 228 229 228 228 230 230 230 230 230 229 229 231 232 231 230 227 226 227 229 231 232 234 235 232 231 231 228 230 234 235 234 234 232 229 227 227 227 226 224 223 224 226 229 230
323 319 314 311 307 304 300 294 289 286 283 280 276 269 264 260 255 248 240 235 234 233 229 229 227 226 228 228 226 226 226 226 227 226 225 225 226 227 226 224 223 224 226 227 227 226 225 225 227 228 229 230 229 229 228 230 232 233 232 229 227 227 229 231 231 233 233 229 229 231 229 228 232 235 235 234 233 230 227 225 224 224 221 220 222 224 226 229
328 325 320 318 314 311 307 301 297 292 286 281 276 269 261 257 253 245 236 231 232 231 227 226 224 223 225 226 223 223 224 225 225 225 225 224 224 225 225 224 223 223 223 224 225 224 223 224 224 225 226 228 228 228 227 228 230 231 232 231 229 228 229 231 231 233 234 229 227 230 229 226 227 231 233 233 232 229 226 224 223 223 220 219 221 222 224 227
333 331 326 323 320 317 312 307 302 296 289 283 277 269 261 254 249 242 235 230 230 229 222 221 221 220 222 221 218 219 221 222 222 222 223 223 223 224 224 224 223 222 222 222 223 222 222 223 224 224 225 225 226 226 225 226 227 227 229 230 229 228 229 231 233 236 236 230 227 228 227 225 224 226 229 231 230 228 225 223 222 222 220 218 221 222 222 225
336 335 331 328 324 320 316 310 305 299 292 286 279 271 262 253 246 240 235 230 228 226 219 216 218 218 219 218 215 216 217 218 219 219 220 221 222 222 223 223 222 222 222 221 221 221 221 223 224 224 225 225 226 225 224 225 225 225 228 229 229 228 229 231 233 236 236 230 226 226 225 224 223 224 226 229 230 228 225 222 220 220 219 218 219 221 222 224
340 337 334 332 329 324 320 316 309 303 298 291 285 276 265 254 246 239 235 231 228 225 218 214 217 218 216 215 214 214 215 216 216 216 217 219 220 220 221 221 222 222 222 221 220 220 220 222 223 224 225 225 225 225 224 224 222 224 227 227 227 227 228 230 231 233 233 229 225 223 224 224 223 225 226 227 227 226 223 222 220 219 218 218 220 221 222 223
343 340 338 336 334 330 326 323 317 310 304 298 291 281 269 256 247 241 237 234 230 226 219 214 217 216 212 210 210 212 214 215 214 214 215 216 217 217 218 219 220 221 221 220 218 219 219 220 221 221 222 222 223 224 224 223 221 223 226 226 227 227 228 229 230 231 231 228 223 221 223 223 223 227 228 225 223 223 223 222 221 220 219 219 220 222 223 224
347 344 343 341 339 338 336 333 326 318 311 305 299 289 275 258 246 241 238 236 231 226 222 218 218 216 209 206 207 209 211 212 213 213 214 214 215 215 215 216 217 219 219 218 217 218 218 218 218 219 219 219 219 221 222 221 221 224 225 225 227 228 228 229 229 230 230 227 223 220 221 222 222 226 231 228 222 221 223 222 221 220 219 220 221 222 223 224
351 349 348 347 345 344 345 341 336 327 319 314 308 295 280 262 244 234 231 232 229 224 221 218 219 216 209 205 205 206 208 209 210 212 213 213 214 214 214 214 215 216 217 217 217 217 218 218 218 217 217 218 219 219 219 218 220 224 225 225 228 230 231 231 231 231 230 227 224 220 220 222 221 224 230 231 224 220 222 223 221 222 222 221 221 222 224 225
354 353 353 353 351 350 351 349 344 335 328 326 321 305 285 265 244 231 223 222 220 219 217 214 216 216 210 206 205 205 206 206 207 210 212 213 213 214 214 215 215 216 216 216 217 218 219 219 218 217 217 218 219 220 220 218 220 223 224 226 229 232 233 234 234 233 230 227 225 221 220 221 219 220 227 231 226 220 222 223 222 223 224 223 222 223 224 226
356 357 356 356 356 356 358 355 349 341 336 334 335 322 292 255 226 218 213 211 210 210 211 211 212 212 209 208 207 205 204 204 205 208 210 212 212 213 214 214 215 215 215 214 215 217 217 218 217 217 217 218 219 220 221 222 223 226 226 227 230 234 236 237 237 235 229 227 227 224 220 217 215 218 224 227 225 219 219 222 222 223 226 224 223 224 225 226
358 -0 360 359 359 1 3 360 353 348 344 340 340 335 286 218 196 195 199 201 202 203 204 205 208 209 207 208 208 207 204 201 202 205 206 208 210 211 212 213 213 213 213 213 213 214 215 217 218 219 219 219 220 220 220 220 223 225 226 227 229 232 235 237 237 233 227 226 228 225 219 214 212 216 221 223 222 216 214 218 221 223 226 226 225 226 227 227
359 2 2 1 2 4 5 5 359 353 351 349 345 340 297 202 187 185 190 196 198 199 200 201 203 205 205 206 206 205 204 201 201 203 204 205 207 209 210 211 211 212 213 213 213 212 212 215 217 218 219 219 219 219 218 219 221 222 223 225 227 231 233 234 234 229 223 223 225 223 218 213 212 216 222 224 223 219 215 216 220 222 225 226 227 228 229 229
0 3 3 3 6 6 6 9 6 358 357 358 353 346 313 198 189 186 186 189 192 195 197 198 200 201 201 202 204 203 201 201 201 201 202 202 203 206 208 209 210 211 212 213 213 212 211 211 213 215 216 217 218 218 218 220 222 223 223 223 226 229 230 232 233 229 223 222 223 221 216 213 212 215 222 224 221 221 220 219 221 222 224 227 228 228 229 230
1 3 5 4 6 8 9 12 9 2 0 2 356 346 270 185 191 192 186 185 186 188 191 193 196 198 197 198 200 201 200 200 200 199 199 200 201 202 204 206 208 208 209 210 210 210 210 210 211 212 214 215 216 217 217 218 220 222 222 223 225 227 227 230 232 229 225 223 223 220 215 212 210 215 222 223 217 217 221 222 223 222 223 227 229 228 229 231
2 4 6 6 7 9 11 12 9 3 3 6 359 348 307 167 173 187 187 183 182 182 184 187 190 192 195 196 197 198 198 199 199 198 197 197 198 200 201 203 205 206 207 208 208 208 209 209 209 210 211 212 214 216 216 217 219 220 219 221 225 227 228 231 233 231 227 224 222 219 216 212 210 216 222 221 216 216 219 220 222 223 222 224 228 229 228 230
3 5 6 7 8 10 11 11 10 5 5 11 7 354 343 142 152 170 180 180 180 178 177 181 185 187 190 194 194 194 195 197 197 196 195 195 196 197 199 201 202 204 206 207 207 207 208 208 208 208 209 210 212 214 216 217 220 220 219 221 225 226 228 231 233 233 230 225 221 219 217 214 212 215 221 220 217 217 220 220 222 223 223 223 226 228 228 229
4 6 7 7 8 10 10 11 10 5 6 17 14 358 352 72 126 154 168 172 175 175 173 175 179 183 186 190 192 191 192 194 194 194 192 192 194 195 197 198 200 202 204 205 207 208 208 208 209 209 209 210 212 213 215 216 219 220 221 223 226 227 229 231 232 233 231 226 222 219 217 215 212 213 218 221 219 219 221 223 224 225 225 225 226 229 229 229
4 6 7 8 8 10 11 13 12 7 8 19 17 3 0 43 97 130 156 164 167 169 170 170 173 177 180 184 188 189 190 191 192 192 191 190 192 194 195 197 199 201 203 203 205 207 208 208 209 210 211 211 212 213 213 214 216 217 219 221 224 226 229 231 233 234 232 227 223 219 217 215 211 211 216 220 220 219 220 223 225 227 227 226 227 229 231 230
4 6 8 8 8 9 10 13 15 11 11 20 23 12 6 32 78 114 144 157 161 164 165 165 168 174 177 180 183 186 187 189 190 190 189 189 190 192 194 196 198 200 202 204 205 206 207 207 208 209 211 211 211 212 212 212 213 214 215 217 218 221 224 228 230 233 233 228 222 218 217 215 210 210 216 220 221 219 218 221 226 229 230 228 227 229 231 231
4 6 7 8 9 9 10 13 15 12 11 22 30 19 10 28 65 113 140 148 154 158 159 159 163 170 176 177 179 182 183 185 187 188 188 188 189 191 193 195 197 199 202 204 205 205 206 206 206 208 209 209 209 210 211 211 212 213 214 215 217 219 222 224 226 228 230 227 222 218 217 214 209 209 215 220 222 220 218 220 223 228 232 231 228 229 231 232
3 6 8 8 9 10 10 12 15 14 11 20 35 32 22 30 56 106 139 144 149 153 154 156 159 166 174 175 176 179 180 181 184 186 187 188 190 191 193 195 196 198 201 203 204 205 205 205 206 208 209 210 211 212 212 213 214 215 217 218 218 220 222 224 226 227 228 227 223 219 217 214 211 210 213 216 219 220 220 221 222 226 233 233 230 230 232 233
2 6 9 9 9 10 11 13 15 16 12 15 33 44 36 35 56 96 136 142 145 149 152 155 158 163 170 173 174 176 178 178 180 183 186 188 191 192 193 194 196 198 200 202 203 204 205 205 206 209 211 213 216 218 219 219 219 219 220 221 221 223 225 227 229 230 231 230 225 220 216 213 213 214 214 214 217 219 220 220 223 228 234 235 232 231 232 234
2 5 9 10 10 10 11 13 16 17 13 11 27 48 46 41 53 91 135 142 144 149 152 154 158 162 168 171 171 173 177 178 178 181 185 188 190 193 194 194 196 197 199 201 202 203 204 204 205 207 209 210 212 215 218 221 222 223 224 224 225 226 228 229 231 233 235 235 231 224 217 213 213 214 214 214 216 219 219 219 221 225 230 233 233 231 232 234
2 5 8 10 10 10 11 13 17 19 14 10 24 48 54 51 54 82 132 144 147 149 151 154 158 162 166 170 170 172 176 180 180 182 185 188 189 192 194 195 196 197 199 200 200 202 203 203 204 205 207 207 207 207 209 213 216 219 222 223 225 226 228 231 233 235 236 237 235 229 222 217 216 215 215 215 216 218 219 220 223 225 229 233 233 232 232 234
1 3 7 10 11 11 11 12 16 20 16 13 24 44 57 64 69 83 125 146 148 148 151 155 158 161 165 168 171 172 176 179 181 184 187 189 190 191 193 196 196 197 199 199 199 201 201 202 204 205 207 208 208 207 207 208 210 213 215 217 219 221 224 227 230 233 235 236 235 231 225 220 219 219 218 218 218 218 219 220 223 226 230 234 235 234 232 233
1 2 6 10 11 11 11 11 14 21 21 18 26 39 53 72 86 97 122 146 148 147 150 152 155 158 162 166 169 172 175 178 181 184 188 190 191 192 194 196 197 198 199 198 198 199 200 201 203 205 207 208 209 209 209 210 211 212 213 214 216 217 219 222 225 228 230 233 234 231 226 220 219 221 221 220 220 221 221 220 221 223 228 232 235 235 233 233
1 2 4 8 11 11 11 11 13 20 24 22 27 37 48 71 95 109 123 141 147 147 148 147 148 153 157 162 167 170 174 178 181 184 187 189 192 194 195 196 198 199 200 198 197 198 199 200 201 204 206 208 209 209 210 211 213 215 216 217 217 218 221 224 227 230 230 231 231 229 223 219 219 221 223 223 223 223 223 222 221 222 225 229 232 235 234 233
1 2 3 7 10 11 11 12 13 17 24 27 29 36 50 71 98 115 126 140 146 145 144 143 145 151 155 160 167 171 174 177 181 184 186 189 191 194 195 196 198 200 200 199 197 198 198 199 200 202 205 207 208 208 208 210 213 215 217 219 220 221 224 227 231 234 235 235 234 230 223 219 218 219 221 224 226 226 225 225 225 225 226 229 232 235 236 235
1 1 2 5 9 10 10 12 14 16 22 29 32 34 48 74 103 122 131 142 147 147 145 144 146 152 157 160 166 171 174 177 181 185 187 188 190 192 194 196 198 199 199 199 199 199 198 199 201 203 204 206 208 209 209 210 212 215 218 221 222 224 227 230 233 236 237 238 237 234 228 222 218 218 219 221 225 228 228 228 230 231 232 233 235 237 238 237
Height
10651 10649 10647 10646 10644 10643 10642 10641 10640 10639 10638 10638 10638 10638 10638 10639 10640 10640 10640 10641 10643 10643 10644 10644 10645 10648 10649 10651 10654 10658 10660 10661 10663 10667 10669 10663 10665 10674 10675 10675 10678 10680 10684 10685 10688 10692 10694 10695 10696 10699 10702 10708 10712 10713 10716 10721 10725 10730 10740 10752 10762 10767 10769 10768 10767 10768 10769 10769 10766 10762 10766 10771 10775 10780 10784 10787 10790 10796 10806 10812 10816 10819 10814 10814 10819 10824 10828 10829
10643 10642 10640 10638 10636 10635 10633 10632 10631 10630 10630 10629 10629 10629 10629 10630 10631 10632 10632 10633 10634 10636 10636 10637 10637 10640 10642 10644 10648 10651 10652 10654 10656 10658 10657 10656 10663 10669 10666 10668 10672 10675 10678 10680 10681 10685 10689 10690 10690 10694 10699 10705 10708 10707 10711 10717 10721 10728 10737 10746 10757 10760 10759 10757 10758 10760 10761 10763 10760 10755 10762 10768 10771 10775 10780 10784 10786 10793 10803 10808 10812 10811 10806 10809 10815 10818 10822 10825
10635 10633 10631 10629 10628 10626 10625 10624 10622 10621 10620 10620 10620 10619 10620 10621 10621 10623 10624 10625 10626 10627 10629 10629 10629 10632 10635 10637 10641 10644 10645 10646 10647 10648 10649 10652 10658 10659 10660 10663 10666 10670 10673 10673 10676 10680 10683 10683 10685 10691 10696 10700 10702 10702 10707 10713 10717 10725 10731 10742 10752 10749 10747 10749 10751 10753 10753 10755 10752 10749 10759 10764 10767 10771 10776 10781 10783 10792 10800 10803 10806 10801 10799 10807 10811 10814 10818 10821
10627 10624 10622 10620 10618 10616 10615 10613 10612 10611 10610 10610 10610 10610 10610 10610 10612 10613 10614 10616 10617 10619 10620 10621 10620 10623 10627 10630 10633 10636 10638 10638 10639 10640 10643 10647 10650 10651 10655 10658 10660 10665 10667 10668 10671 10674 10676 10678 10681 10686 10690 10694 10695 10696 10703 10708 10712 10718 10726 10737 10741 10735 10739 10742 10742 10745 10745 10748 10744 10744 10755 10760 10762 10767 10773 10778 10780 10789 10796 10798 10798 10792 10795 10803 10806 10809 10814 10817
10618 10615 10612 10609 10607 10605 10603 10602 10601 10600 10599 10599 10598 10599 10599 10600 10601 10602 10604 10605 10607 10609 10611 10612 10612 10613 10618 10622 10625 10629 10630 10630 10632 10633 10636 10639 10642 10645 10648 10652 10655 10658 10660 10663 10666 10667 10670 10673 10676 10680 10685 10689 10688 10692 10699 10701 10704 10712 10720 10728 10728 10727 10734 10734 10734 10738 10739 10740 10738 10740 10751 10755 10759 10764 10769 10774 10777 10785 10792 10793 10787 10783 10791 10799 10802 10806 10810 10814
10608 10605 10601 10598 10595 10593 10590 10589 10588 10586 10586 10585 10585 10586 10586 10588 10589 10590 10593 10594 10596 10598 10600 10602 10602 10604 10609 10613 10617 10621 10622 10623 10624 10626 10628 10632 10636 10639 10642 10646 10648 10651 10654 10657 10659 10661 10664 10667 10671 10676 10680 10682 10683 10688 10691 10691 10697 10707 10715 10719 10719 10722 10726 10725 10727 10731 10730 10732 10733 10737 10746 10751 10756 10762 10765 10769 10773 10779 10786 10785 10774 10775 10789 10796 10799 10803 10806 10810
10598 10594 10590 10586 10583 10580 10577 10575 10573 10572 10572 10570 10571 10571 10572 10574 10574 10577 10579 10582 10584 10586 10589 10591 10592 10595 10598 10605 10609 10612 10616 10616 10614 10617 10621 10625 10630 10633 10636 10639 10642 10645 10649 10651 10652 10655 10658 10661 10667 10670 10673 10675 10678 10682 10682 10684 10692 10703 10709 10711 10712 10716 10718 10718 10720 10723 10723 10727 10730 10733 10742 10748 10752 10756 10760 10762 10766 10771 10776 10777 10767 10773 10789 10794 10795 10798 10801 10803
10585 10581 10577 10572 10569 10565 10562 10560 10558 10556 10556 10555 10555 10555 10556 10557 10559 10562 10564 10568 10571 10573 10577 10578 10581 10584 10588 10596 10599 10605 10610 10603 10601 10610 10616 10619 10624 10627 10630 10632 10635 10639 10641 10644 10646 10648 10652 10657 10662 10664 10667 10670 10672 10674 10675 10678 10688 10699 10703 10704 10705 10709 10712 10712 10714 10717 10719 10723 10725 10729 10738 10743 10746 10750 10752 10754 10758 10762 10769 10772 10767 10773 10785 10787 10789 10791 10793 10795
10571 10566 10561 10556 10552 10548 10545 10543 10540 10539 10538 10538 10538 10538 10539 10540 10543 10545 10547 10551 10554 10559 10563 10565 10570 10572 10578 10585 10589 10600 10598 10585 10594 10608 10610 10612 10616 10619 10622 10624 10627 10631 10634 10637 10639 10643 10648 10653 10655 10657 10661 10663 10664 10669 10670 10675 10687 10694 10694 10695 10698 10702 10704 10706 10709 10712 10714 10718 10720 10725 10734 10738 10741 10744 10744 10748 10751 10756 10765 10768 10766 10770 10776 10779 10783 10784 10786 10789
10554 10548 10543 10538 10533 10529 10526 10523 10521 10519 10519 10519 10519 10520 10521 10522 10525 10527 10530 10534 10538 10543 10546 10551 10556 10560 10569 10573 10582 10593 10580 10573 10591 10601 10600 10603 10607 10610 10613 10616 10620 10624 10627 10630 10633 10639 10642 10644 10646 10648 10653 10656 10660 10664 10666 10674 10682 10684 10685 10687 10692 10696 10698 10701 10704 10706 10709 10713 10715 10723 10729 10731 10734 10736 10738 10743 10746 10752 10760 10760 10761 10767 10770 10774 10776 10777 10781 10785
10535 10528 10522 10517 10512 10508 10504 10502 10500 10498 10497 10498 10498 10500 10501 10503 10506 10508 10512 10516 10521 10526 10530 10536 10541 10548 10557 10562 10576 10579 10562 10566 10584 10589 10592 10595 10598 10602 10605 10610 10614 10617 10620 10623 10627 10631 10633 10634 10637 10642 10649 10653 10656 10659 10663 10670 10673 10675 10679 10683 10688 10691 10694 10698 10700 10701 10705 10710 10712 10718 10722 10723 10727 10729 10732 10738 10744 10749 10751 10751 10757 10763 10765 10769 10770 10772 10776 10778
10513 10506 10500 10494 10489 10485 10481 10479 10476 10475 10475 10475 10476 10478 10479 10482 10486 10488 10492 10497 10503 10509 10513 10519 10525 10534 10543 10554 10567 10556 10545 10560 10572 10579 10585 10585 10591 10594 10597 10603 10606 10609 10612 10615 10618 10621 10623 10625 10630 10638 10644 10647 10650 10654 10659 10664 10665 10670 10674 10679 10684 10686 10690 10695 10696 10696 10700 10706 10707 10711 10715 10718 10720 10722 10726 10734 10742 10743 10741 10745 10752 10756 10759 10763 10764 10765 10768 10769
10490 10483 10476 10470 10465 10461 10458 10455 10453 10452 10452 10452 10453 10455 10457 10460 10464 10468 10472 10478 10484 10490 10497 10502 10509 10518 10528 10546 10549 10531 10534 10552 10560 10571 10577 10576 10583 10584 10588 10594 10596 10600 10604 10607 10610 10611 10614 10617 10625 10633 10637 10640 10645 10649 10654 10657 10660 10665 10669 10675 10678 10682 10689 10690 10689 10689 10695 10701 10702 10705 10710 10713 10713 10715 10722 10730 10735 10735 10736 10740 10744 10748 10753 10755 10756 10757 10760 10762
10468 10461 10454 10448 10443 10439 10436 10433 10431 10430 10429 10430 10431 10432 10435 10437 10442 10447 10451 10458 10465 10472 10480 10486 10494 10502 10516 10532 10525 10511 10525 10543 10552 10564 10565 10565 10569 10572 10578 10583 10585 10591 10595 10598 10601 10603 10607 10612 10620 10626 10630 10636 10640 10643 10648 10651 10655 10659 10664 10670 10675 10681 10686 10683 10682 10685 10691 10696 10695 10700 10706 10706 10706 10708 10716 10723 10725 10728 10732 10735 10737 10741 10745 10746 10748 10751 10753 10756
10448 10441 10434 10428 10423 10419 10415 10413 10411 10410 10409 10410 10410 10412 10413 10416 10420 10425 10431 10438 10445 10454 10462 10469 10477 10488 10504 10513 10501 10496 10515 10533 10543 10548 10548 10552 10556 10560 10568 10571 10576 10582 10586 10590 10593 10597 10602 10608 10616 10622 10627 10631 10632 10638 10643 10646 10651 10655 10661 10669 10674 10678 10680 10677 10677 10681 10685 10688 10689 10696 10700 10698 10699 10701 10707 10715 10718 10723 10728 10730 10731 10734 10737 10738 10740 10744 10748 10751
10431 10423 10416 10409 10404 10399 10396 10393 10391 10391 10390 10391 10391 10392 10394 10396 10400 10405 10412 10418 10425 10436 10444 10451 10460 10473 10489 10490 10482 10486 10502 10517 10527 10532 10538 10545 10546 10550 10557 10563 10568 10574 10579 10582 10586 10592 10597 10605 10614 10618 10622 10625 10629 10635 10637 10641 10648 10652 10658 10665 10669 10672 10673 10672 10673 10676 10678 10681 10685 10691 10692 10691 10692 10692 10700 10710 10714 10717 10723 10724 10725 10728 10730 10731 10734 10740 10744 10747
10415 10407 10399 10392 10387 10382 10379 10375 10373 10373 10373 10373 10373 10374 10375 10376 10381 10387 10393 10399 10408 10418 10426 10433 10441 10458 10471 10469 10469 10476 10486 10501 10515 10524 10531 10535 10535 10538 10548 10557 10560 10565 10570 10573 10580 10587 10593 10602 10610 10613 10617 10621 10626 10630 10633 10641 10646 10649 10654 10660 10663 10666 10668 10667 10667 10669 10671 10674 10679 10683 10685 10686 10685 10686 10695 10705 10709 10712 10717 10718 10720 10723 10724 10726 10730 10735 10738 10741
10400 10392 10384 10377 10372 10367 10363 10358 10357 10356 10357 10357 10356 10357 10356 10358 10365 10370 10375 10384 10393 10400 10408 10414 10423 10441 10450 10450 10457 10463 10471 10487 10503 10515 10521 10524 10525 10530 10542 10548 10550 10555 10561 10567 10577 10583 10589 10598 10603 10607 10613 10618 10623 10628 10634 10640 10641 10643 10648 10652 10656 10660 10662 10662 10661 10663 10665 10667 10672 10676 10680 10681 10680 10681 10690 10698 10703 10706 10710 10713 10715 10718 10720 10722 10726 10729 10733 10736
10386 10378 10371 10364 10359 10353 10348 10344 10342 10342 10343 10341 10340 10341 10341 10344 10351 10355 10360 10369 10377 10382 10388 10395 10407 10423 10431 10434 10442 10448 10458 10473 10488 10501 10508 10512 10515 10522 10533 10538 10540 10548 10555 10565 10574 10578 10585 10592 10597 10605 10612 10617 10621 10626 10631 10633 10633 10637 10641 10645 10650 10653 10655 10655 10654 10656 10657 10660 10666 10671 10675 10676 10675 10676 10683 10690 10696 10700 10704 10707 10711 10714 10716 10718 10721 10724 10728 10730
10374 10366 10359 10352 10346 10341 10336 10332 10330 10328 10328 10327 10326 10327 10327 10332 10338 10342 10348 10355 10360 10364 10370 10380 10392 10406 10413 10417 10425 10433 10446 10460 10473 10486 10494 10499 10503 10511 10522 10528 10534 10544 10552 10562 10568 10572 10579 10587 10596 10604 10609 10611 10614 10619 10623 10624 10627 10631 10635 10640 10644 10647 10649 10649 10649 10649 10650 10655 10661 10665 10668 10670 10670 10670 10676 10684 10691 10695 10699 10702 10706 10709 10711 10714 10717 10719 10723 10725
10362 10354 10347 10340 10335 10331 10326 10322 10319 10316 10315 10314 10314 10314 10315 10320 10325 10330 10336 10341 10345 10350 10356 10365 10377 10390 10397 10399 10408 10418 10431 10446 10461 10472 10481 10486 10490 10500 10514 10521 10529 10540 10549 10555 10558 10564 10573 10585 10595 10599 10600 10602 10606 10611 10616 10618 10622 10626 10631 10635 10638 10642 10644 10643 10643 10642 10644 10650 10656 10660 10663 10665 10664 10667 10673 10680 10686 10689 10693 10697 10701 10705 10707 10711 10713 10716 10718 10719
10351 10343 10336 10330 10325 10321 10317 10313 10309 10306 10304 10304 10304 10303 10305 10310 10314 10318 10324 10328 10330 10334 10340 10349 10361 10373 10375 10377 10389 10402 10417 10435 10447 10458 10469 10473 10479 10491 10505 10514 10525 10534 10538 10543 10550 10560 10572 10584 10588 10589 10592 10595 10599 10606 10610 10612 10617 10622 10626 10630 10634 10638 10638 10637 10638 10637 10638 10647 10652 10654 10658 10660 10660 10665 10671 10675 10679 10683 10688 10693 10696 10700 10703 10707 10710 10712 10713 10713
10342 10334 10327 10322 10317 10313 10309 10304 10301 10298 10296 10295 10295 10295 10296 10299 10303 10307 10312 10316 10316 10317 10324 10332 10343 10354 10356 10362 10376 10392 10408 10423 10433 10445 10457 10463 10471 10481 10493 10507 10517 10522 10526 10536 10548 10558 10570 10578 10579 10581 10585 10589 10594 10601 10605 10609 10613 10618 10622 10627 10630 10632 10633 10634 10635 10632 10633 10642 10646 10647 10655 10658 10659 10664 10668 10670 10673 10678 10683 10687 10691 10694 10698 10702 10705 10707 10708 10709
10334 10327 10320 10314 10310 10306 10301 10296 10294 10292 10289 10288 10288 10288 10288 10290 10293 10297 10302 10304 10300 10301 10311 10320 10332 10345 10345 10348 10365 10383 10396 10407 10419 10433 10446 10455 10461 10469 10484 10498 10505 10510 10521 10533 10542 10552 10563 10567 10568 10573 10578 10582 10589 10595 10601 10606 10611 10615 10619 10623 10624 10626 10627 10628 10628 10622 10624 10635 10640 10644 10652 10656 10659 10662 10663 10665 10669 10673 10677 10681 10685 10688 10693 10697 10700 10702 10703 10705
10326 10320 10313 10307 10303 10299 10294 10290 10287 10286 10282 10281 10281 10281 10281 10282 10285 10288 10291 10291 10287 10293 10308 10317 10325 10331 10327 10334 10359 10376 10383 10395 10410 10425 10437 10445 10449 10460 10475 10485 10494 10505 10516 10525 10534 10544 10554 10556 10558 10565 10570 10576 10583 10591 10598 10602 10606 10611 10615 10617 10618 10619 10620 10621 10619 10614 10618 10632 10639 10642 10648 10653 10657 10658 10659 10660 10662 10666 10671 10676 10681 10684 10688 10692 10695 10697 10699 10701
10320 10314 10307 10302 10296 10292 10288 10284 10282 10279 10277 10275 10275 10275 10275 10276 10278 10280 10280 10281 10283 10291 10302 10306 10309 10311 10312 10327 10351 10361 10369 10386 10400 10413 10425 10433 10440 10451 10464 10476 10489 10500 10507 10515 10524 10535 10545 10547 10552 10560 10564 10570 10578 10586 10593 10596 10601 10607 10610 10610 10610 10612 10613 10614 10612 10610 10617 10631 10636 10637 10643 10649 10653 10654 10654 10653 10654 10660 10667 10673 10677 10680 10684 10687 10690 10693 10695 10697
10316 10309 10303 10297 10292 10287 10283 10280 10276 10274 10272 10270 10270 10269 10270 10270 10271 10273 10274 10276 10279 10284 10291 10295 10296 10299 10307 10323 10340 10349 10361 10374 10383 10398 10413 10422 10430 10442 10456 10470 10482 10490 10496 10505 10517 10531 10539 10541 10547 10555 10559 10567 10576 10584 10589 10591 10597 10602 10602 10601 10603 10605 10606 10606 10606 10607 10615 10625 10630 10634 10640 10645 10648 10649 10648 10647 10651 10659 10664 10669 10672 10675 10679 10682 10686 10688 10691 10693
10312 10305 10299 10293 10288 10283 10279 10275 10272 10270 10267 10266 10265 10265 10265 10266 10267 10268 10269 10271 10274 10278 10285 10288 10289 10295 10308 10324 10337 10346 10352 10357 10370 10389 10401 10408 10420 10434 10450 10463 10472 10480 10488 10501 10516 10527 10530 10534 10543 10550 10557 10566 10574 10579 10582 10585 10592 10594 10591 10593 10596 10598 10598 10598 10600 10604 10611 10619 10626 10633 10638 10642 10645 10644 10643 10646 10652 10656 10660 10664 10667 10670 10674 10677 10680 10683 10687 10689
10309 10302 10296 10290 10285 10280 10275 10272 10269 10266 10264 10262 10261 10261 10261 10262 10263 10265 10266 10268 10271 10275 10281 10284 10286 10295 10309 10320 10330 10336 10341 10351 10367 10378 10386 10396 10409 10425 10441 10452 10461 10469 10480 10496 10509 10515 10520 10529 10537 10543 10552 10562 10568 10571 10574 10580 10585 10583 10582 10586 10589 10591 10592 10592 10596 10601 10607 10616 10626 10632 10635 10638 10640 10639 10641 10647 10651 10653 10655 10659 10662 10666 10669 10672 10675 10678 10682 10684
10307 10299 10293 10287 10282 10277 10273 10269 10266 10263 10261 10259 10258 10258 10258 10259 10260 10262 10264 10266 10270 10274 10279 10283 10286 10294 10304 10311 10317 10324 10334 10347 10358 10365 10374 10386 10398 10414 10429 10439 10448 10459 10473 10488 10499 10507 10515 10521 10527 10537 10548 10554 10557 10560 10565 10573 10576 10572 10575 10581 10583 10585 10587 10589 10594 10598 10606 10618 10626 10629 10631 10633 10635 10637 10641 10645 10647 10649 10651 10655 10658 10662 10665 10666 10669 10674 10677 10680
10305 10297 10291 10285 10280 10275 10271 10267 10265 10261 10259 10257 10256 10256 10255 10256 10257 10259 10262 10264 10268 10272 10276 10281 10285 10292 10299 10303 10308 10315 10323 10334 10345 10356 10367 10377 10389 10405 10418 10427 10439 10452 10467 10482 10494 10503 10508 10514 10525 10536 10541 10543 10547 10551 10558 10566 10566 10564 10571 10576 10578 10581 10585 10588 10593 10598 10609 10619 10623 10625 10627 10628 10632 10637 10639 10640 10642 10645 10649 10653 10656 10659 10660 10662 10665 10669 10673 10675
10303 10296 10289 10284 10279 10274 10269 10265 10263 10260 10258 10255 10254 10254 10254 10254 10255 10257 10259 10262 10265 10269 10273 10278 10282 10289 10296 10298 10302 10308 10317 10329 10342 10353 10364 10377 10391 10405 10417 10429 10441 10454 10469 10483 10493 10499 10505 10515 10524 10529 10531 10536 10542 10548 10554 10559 10559 10561 10568 10573 10576 10580 10584 10589 10594 10600 10610 10617 10618 10620 10622 10624 10630 10634 10634 10634 10638 10643 10647 10649 10652 10654 10655 10657 10661 10665 10668 10671
10302 10295 10288 10283 10278 10273 10269 10265 10262 10259 10257 10254 10253 10252 10252 10253 10254 10255 10257 10259 10262 10265 10270 10275 10279 10286 10292 10295 10299 10306 10315 10328 10341 10350 10362 10377 10391 10404 10416 10427 10439 10453 10468 10479 10485 10491 10500 10508 10513 10519 10526 10533 10540 10546 10553 10559 10560 10562 10568 10572 10576 10580 10585 10591 10594 10600 10607 10611 10611 10614 10618 10623 10628 10630 10630 10631 10635 10639 10642 10645 10647 10648 10649 10653 10658 10661 10663 10666
10302 10295 10289 10283 10278 10273 10269 10265 10262 10259 10257 10255 10253 10251 10251 10251 10252 10253 10254 10256 10258 10261 10265 10270 10276 10282 10288 10293 10301 10309 10317 10326 10335 10344 10356 10370 10384 10397 10409 10421 10436 10449 10460 10467 10474 10485 10495 10503 10512 10521 10528 10533 10539 10546 10552 10555 10555 10558 10564 10569 10573 10579 10584 10587 10590 10596 10603 10605 10606 10609 10615 10621 10624 10625 10625 10625 10628 10633 10637 10640 10642 10644 10646 10651 10655 10656 10659 10662
10303 10296 10289 10284 10279 10274 10270 10266 10262 10260 10258 10256 10254 10253 10252 10252 10252 10252 10253 10254 10257 10260 10263 10268 10273 10280 10287 10294 10301 10309 10317 10325 10331 10340 10352 10366 10381 10395 10408 10423 10436 10446 10454 10461 10470 10481 10492 10502 10512 10519 10523 10529 10535 10540 10544 10545 10547 10551 10557 10564 10571 10576 10579 10581 10585 10592 10597 10598 10599 10605 10612 10617 10619 10621 10620 10622 10627 10631 10634 10636 10637 10640 10643 10646 10648 10650 10654 10657
10303 10297 10290 10285 10280 10275 10271 10267 10263 10261 10259 10257 10256 10254 10253 10253 10253 10252 10252 10254 10257 10260 10263 10268 10274 10280 10287 10293 10300 10306 10315 10322 10329 10339 10351 10365 10379 10393 10408 10421 10432 10442 10452 10461 10470 10480 10490 10497 10503 10509 10516 10523 10529 10533 10537 10541 10544 10547 10555 10565 10570 10570 10572 10576 10582 10587 10590 10591 10595 10602 10608 10612 10615 10617 10616 10619 10625 10629 10630 10631 10632 10636 10639 10641 10642 10645 10649 10652
10304 10298 10292 10286 10281 10277 10272 10267 10264 10262 10260 10259 10258 10256 10255 10254 10254 10254 10254 10255 10257 10260 10264 10269 10274 10280 10286 10291 10297 10305 10313 10320 10328 10339 10350 10362 10375 10388 10402 10414 10426 10438 10447 10455 10465 10476 10483 10489 10496 10503 10510 10516 10521 10525 10531 10536 10539 10545 10557 10563 10560 10560 10568 10574 10578 10582 10586 10589 10593 10599 10604 10607 10610 10611 10612 10617 10622 10625 10625 10626 10628 10632 10634 10635 10636 10640 10644 10647
10305 10298 10293 10287 10282 10277 10272 10269 10267 10265 10263 10261 10260 10259 10257 10256 10256 10256 10256 10257 10259 10262 10265 10270 10274 10280 10286 10291 10297 10305 10313 10321 10329 10339 10349 10361 10374 10386 10398 10410 10422 10432 10438 10447 10457 10466 10472 10479 10486 10493 10501 10508 10512 10517 10526 10532 10535 10543 10552 10552 10551 10560 10569 10571 10574 10579 10582 10585 10590 10596 10601 10604 10606 10607 10610 10615 10618 10619 10619 10620 10623 10626 10628 10630 10631 10634 10638 10642
10307 10300 10294 10289 10283 10278 10275 10272 10269 10267 10265 10264 10262 10261 10260 10259 10258 10258 10259 10260 10261 10264 10267 10271 10276 10281 10286 10291 10298 10305 10312 10320 10329 10339 10350 10362 10374 10385 10396 10408 10418 10425 10433 10443 10451 10457 10463 10470 10478 10486 10494 10500 10506 10515 10525 10531 10534 10540 10545 10546 10551 10560 10564 10566 10572 10576 10578 10582 10587 10592 10597 10600 10603 10605 10607 10610 10613 10613 10614 10616 10619 10621 10623 10626 10627 10630 10634 10638
10310 10303 10296 10291 10286 10282 10278 10274 10271 10269 10268 10266 10265 10264 10263 10261 10261 10260 10261 10262 10264 10267 10269 10273 10278 10282 10287 10293 10299 10305 10312 10319 10329 10339 10349 10360 10371 10382 10393 10404 10412 10419 10428 10437 10445 10451 10457 10466 10476 10483 10489 10497 10507 10517 10524 10528 10531 10537 10543 10547 10552 10556 10559 10564 10569 10571 10574 10578 10583 10588 10593 10597 10599 10601 10603 10605 10608 10610 10611 10613 10616 10618 10620 10623 10625 10627 10630 10635
10312 10305 10299 10294 10289 10285 10281 10277 10274 10273 10271 10268 10268 10267 10266 10265 10264 10263 10264 10265 10267 10269 10271 10275 10279 10284 10289 10294 10299 10305 10312 10320 10329 10339 10348 10359 10369 10380 10391 10400 10406 10413 10421 10429 10437 10446 10456 10467 10476 10483 10491 10501 10510 10514 10518 10522 10527 10532 10538 10543 10547 10552 10556 10561 10565 10567 10570 10573 10578 10583 10588 10592 10595 10597 10598 10600 10603 10606 10608 10610 10613 10615 10617 10620 10622 10624 10626 10631
10314 10308 10302 10297 10292 10288 10284 10281 10277 10275 10274 10272 10271 10270 10269 10268 10267 10266 10267 10268 10270 10271 10274 10277 10281 10285 10289 10294 10299 10306 10313 10322 10331 10340 10349 10358 10368 10378 10387 10394 10400 10409 10418 10426 10434 10443 10454 10465 10474 10483 10492 10499 10504 10506 10511 10517 10520 10523 10529 10535 10541 10547 10552 10557 10561 10562 10565 10568 10573 10578 10583 10587 10591 10594 10595 10597 10599 10602 10605 10608 10610 10612 10613 10616 10619 10621 10623 10627
10317 10311 10305 10300 10295 10291 10288 10284 10281 10278 10277 10275 10274 10273 10273 10271 10270 10270 10270 10271 10273 10275 10277 10280 10284 10288 10292 10295 10301 10307 10314 10322 10331 10341 10350 10358 10365 10372 10378 10385 10395 10406 10415 10424 10433 10442 10452 10463 10472 10479 10484 10489 10493 10497 10504 10510 10513 10518 10525 10532 10538 10543 10548 10552 10554 10555 10559 10563 10567 10573 10578 10584 10589 10591 10592 10593 10595 10598 10601 10604 10607 10608 10609 10611 10615 10617 10619 10623
10320 10315 10309 10303 10298 10294 10291 10287 10284 10282 10280 10278 10277 10276 10276 10275 10274 10273 10273 10273 10275 10277 10280 10283 10286 10289 10293 10297 10302 10308 10315 10323 10332 10342 10350 10356 10361 10366 10373 10382 10393 10403 10412 10421 10431 10442 10452 10461 10468 10473 10477 10482 10488 10494 10502 10509 10514 10519 10525 10531 10536 10540 10543 10545 10548 10551 10555 10558 10563 10569 10574 10580 10585 10587 10588 10590 10592 10594 10597 10600 10603 10605 10605 10606 10609 10612 10615 10619
10322 10317 10312 10306 10301 10297 10294 10290 10287 10285 10284 10282 10280 10279 10279 10278 10278 10277 10276 10276 10278 10280 10282 10284 10287 10290 10294 10298 10303 10308 10315 10322 10331 10341 10348 10352 10358 10363 10371 10380 10390 10400 10410 10419 10429 10440 10450 10459 10467 10473 10480 10488 10496 10504 10511 10515 10517 10520 10524 10528 10533 10536 10539 10542 10545 10549 10552 10555 10560 10564 10570 10577 10581 10583 10585 10588 10589 10591 10593 10596 10599 10601 10600 10600 10603 10607 10611 10615
10325 10320 10315 10310 10305 10300 10297 10294 10291 10289 10287 10285 10283 10282 10282 10282 10281 10280 10280 10280 10280 10282 10284 10286 10289 10292 10296 10300 10305 10310 10316 10320 10326 10333 10340 10347 10355 10363 10371 10380 10389 10397 10405 10414 10427 10438 10448 10457 10466 10473 10480 10488 10495 10503 10509 10512 10514 10517 10521 10526 10531 10534 10536 10539 10542 10546 10550 10553 10557 10562 10568 10574 10576 10579 10582 10584 10586 10587 10589 10592 10594 10594 10594 10595 10598 10603 10607 10611
10327 10322 10317 10313 10308 10304 10300 10298 10295 10292 10290 10289 10287 10285 10285 10285 10285 10284 10284 10283 10283 10285 10287 10289 10291 10294 10298 10302 10306 10311 10316 10321 10326 10330 10335 10342 10351 10361 10370 10378 10386 10394 10402 10414 10427 10437 10446 10455 10463 10468 10474 10479 10485 10491 10496 10501 10505 10510 10516 10522 10526 10530 10533 10536 10539 10544 10546 10549 10553 10560 10566 10570 10573 10575 10577 10579 10581 10583 10587 10590 10590 10590 10591 10593 10596 10601 10604 10607
10330 10325 10320 10316 10312 10308 10304 10301 10298 10296 10294 10292 10290 10289 10288 10287 10288 10288 10288 10288 10288 10289 10291 10292 10294 10297 10301 10305 10309 10314 10319 10326 10331 10336 10341 10347 10353 10361 10369 10376 10384 10394 10404 10416 10428 10436 10444 10453 10459 10465 10470 10474 10480 10484 10488 10492 10497 10502 10508 10513 10519 10524 10527 10530 10534 10538 10541 10545 10550 10556 10562 10567 10569 10571 10573 10575 10577 10580 10584 10586 10588 10590 10591 10592 10595 10598 10602 10604
10333 10328 10323 10319 10315 10311 10308 10305 10302 10299 10297 10295 10294 10292 10292 10291 10290 10290 10291 10292 10292 10293 10294 10296 10299 10301 10305 10308 10313 10317 10323 10329 10335 10340 10346 10353 10359 10363 10369 10378 10389 10397 10405 10416 10427 10435 10444 10452 10458 10464 10468 10471 10476 10482 10487 10492 10494 10498 10503 10508 10513 10518 10521 10523 10527 10531 10536 10541 10547 10552 10558 10563 10565 10567 10568 10571 10573 10576 10578 10581 10584 10587 10589 10590 10592 10595 10598 10601
10335 10330 10325 10322 10318 10315 10311 10308 10305 10303 10300 10298 10297 10296 10295 10294 10293 10293 10294 10296 10297 10297 10298 10300 10303 10305 10308 10312 10316 10320 10325 10330 10335 10341 10347 10355 10361 10366 10373 10382 10391 10397 10405 10417 10428 10435 10443 10451 10456 10460 10463 10467 10473 10479 10486 10490 10493 10497 10501 10505 10510 10514 10517 10520 10523 10528 10533 10538 10542 10548 10554 10558 10561 10563 10565 10567 10569 10571 10573 10576 10579 10582 10584 10586 10588 10590 10593 10596
10338 10333 10328 10324 10321 10318 10315 10311 10308 10306 10303 10302 10300 10299 10298 10298 10297 10296 10297 10299 10300 10301 10302 10304 10306 10308 10311 10314 10318 10322 10326 10331 10336 10341 10347 10354 10362 10371 10379 10386 10392 10399 10410 10421 10428 10434 10441 10447 10451 10454 10457 10462 10468 10475 10481 10486 10489 10493 10497 10501 10507 10512 10516 10518 10522 10527 10532 10536 10540 10545 10550 10553 10556 10558 10560 10563 10564 10566 10568 10571 10574 10576 10579 10581 10584 10587 10590 10593
10341 10336 10332 10327 10324 10321 10318 10315 10312 10309 10307 10305 10303 10303 10301 10300 10300 10299 10300 10301 10303 10304 10305 10306 10308 10310 10313 10316 10320 10324 10328 10332 10337 10342 10348 10356 10364 10372 10380 10387 10393 10402 10413 10422 10427 10432 10438 10443 10446 10450 10454 10459 10465 10472 10477 10482 10486 10490 10495 10501 10506 10511 10514 10517 10520 10524 10528 10533 10537 10541 10545 10548 10551 10553 10556 10558 10559 10561 10564 10567 10569 10572 10575 10578 10582 10585 10588 10590